Location: Melbourne
(37.8170°S, 144.9670°E)
Time: 02:33:12
(UTC+10:00)

Explorer 11/Cluster Stage 4 - Visible Passes

Search period start: 03 July 2015 00:00
Search period end: 13 July 2015 00:00
Orbit: 467 x 1272 km, 28.8° (Epoch: 30 June)

Date Brightness Start Highest point End Pass type
(mag) Time Alt. Az. Time Alt. Az. Time Alt. Az.
03 Jul 8.6 18:17:11 10° NNW 18:22:51 27° NNE 18:28:46 12° ENE visible
03 Jul 8.1 20:04:29 10° WNW 20:11:03 42° N 20:11:03 42° N visible
03 Jul 9.9 21:53:06 10° WNW 21:53:19 11° WNW 21:53:19 11° WNW visible
04 Jul 8.5 18:08:20 10° NW 18:13:59 29° NNE 18:20:33 10° ENE visible
04 Jul 8.0 19:55:46 10° WNW 20:02:41 43° N 20:02:51 43° N visible
04 Jul 9.8 21:44:23 10° WNW 21:45:07 13° WNW 21:45:07 13° WNW visible
05 Jul 8.4 17:59:33 10° NW 18:05:09 31° NNE 18:11:44 10° ENE visible
05 Jul 8.0 19:47:05 10° WNW 19:53:49 43° N 19:54:39 42° NNE visible
05 Jul 9.7 21:35:43 10° WNW 21:36:56 15° WNW 21:36:56 15° WNW visible
06 Jul 8.3 17:50:50 10° NW 17:56:19 32° NNE 18:02:52 10° ENE visible
06 Jul 8.0 19:38:26 10° WNW 19:45:00 42° N 19:46:29 39° NNE visible
06 Jul 9.5 21:27:05 10° WNW 21:28:46 17° WNW 21:28:46 17° WNW visible
07 Jul 8.2 17:42:09 10° NW 17:47:31 33° NNE 17:53:59 10° ENE visible
07 Jul 8.0 19:29:49 10° WNW 19:36:10 41° N 19:38:21 34° NE visible
07 Jul 9.4 21:18:31 10° WNW 21:20:38 19° WNW 21:20:38 19° WNW visible
08 Jul 8.2 17:33:32 10° NW 17:38:45 34° NNE 17:45:04 10° ENE visible
08 Jul 8.1 19:21:15 10° WNW 19:27:21 39° N 19:30:15 29° NE visible
08 Jul 9.3 21:10:01 10° WNW 21:12:31 20° WNW 21:12:31 20° WNW visible
09 Jul 8.2 19:12:43 10° WNW 19:18:34 37° N 19:22:13 24° NE visible
09 Jul 9.2 21:01:33 10° WNW 21:04:29 20° NW 21:04:29 20° NW visible
10 Jul 8.2 19:04:12 10° WNW 19:09:47 34° N 19:14:15 18° NE visible
10 Jul 9.2 20:53:13 10° WNW 20:56:33 20° NW 20:56:33 20° NW visible
11 Jul 8.3 18:55:45 10° WNW 19:01:01 31° N 19:06:23 13° NE visible
11 Jul 9.2 20:44:59 10° WNW 20:48:41 18° NNW 20:48:41 18° NNW visible
12 Jul 8.5 18:47:21 10° WNW 18:52:17 28° N 18:58:07 10° NE visible
12 Jul 9.3 20:36:58 10° WNW 20:40:52 16° NNW 20:40:56 16° NNW visible
